When you browse on this site, cookies collect data to enhance your experience and personalize the content and advertising you see.
Visit our Privacy Policy to learn more. By continuing to use the site, you agree to this use of cookies and data.
  • In Czech Republic
  • List of Countries
  • For 7 days
  • Water Temperature
  • Weather Map
  • Weather Widgets
  • user-avatar
    Login

    Hourly Weather Malaga

    Today, 29 May, Friday

    Time Temperature Precipitation Wind Pressure Humidity
    00:00 +14°C° 0.3 mm 0 mps 578 mmHg 93%
    01:00 +14°C° 0.3 mm 1 mps 578 mmHg 93%
    02:00 +14°C° 0.2 mm 1 mps 578 mmHg 93%
    03:00 +14°C° 0.2 mm 1 mps 577 mmHg 93%
    04:00 +14°C° 0.2 mm 1 mps 577 mmHg 92%
    05:00 +14°C° 0 mm 1 mps 578 mmHg 91%
    06:00 +15°C° 0 mm 1 mps 578 mmHg 89%
    07:00 +15°C° 0 mm 1 mps 579 mmHg 88%
    08:00 +16°C° 0.2 mm 1 mps 579 mmHg 83%
    09:00 +19°C° 0.2 mm 1 mps 580 mmHg 79%
    10:00 +20°C° 0.2 mm 1 mps 581 mmHg 75%
    11:00 +20°C° 0.7 mm 1 mps 580 mmHg 76%
    12:00 +20°C° 0.7 mm 1 mps 580 mmHg 78%
    13:00 +20°C° 0.7 mm 1 mps 579 mmHg 79%
    14:00 +20°C° 0.8 mm 1 mps 579 mmHg 81%
    15:00 +20°C° 0.8 mm 1 mps 578 mmHg 82%
    16:00 +20°C° 0.8 mm 1 mps 578 mmHg 83%
    17:00 +19°C° 1.1 mm 1 mps 578 mmHg 87%
    18:00 +16°C° 1.1 mm 1 mps 578 mmHg 90%
    19:00 +15°C° 1.1 mm 1 mps 578 mmHg 93%
    20:00 +15°C° 1.2 mm 1 mps 578 mmHg 93%
    21:00 +15°C° 1.2 mm 1 mps 578 mmHg 92%
    22:00 +14°C° 1.2 mm 1 mps 578 mmHg 91%
    23:00 +14°C° 1.2 mm 1 mps 578 mmHg 92%

    Tomorrow, 30 May, Saturday

    Time Temperature Precipitation Wind Pressure Humidity
    00:00 +14°C° 1.2 mm 1 mps 578 mmHg 92%
    01:00 +13°C° 1.2 mm 0 mps 578 mmHg 92%
    02:00 +14°C° 0.6 mm 1 mps 577 mmHg 92%
    03:00 +14°C° 0.6 mm 1 mps 577 mmHg 93%
    04:00 +13°C° 0.6 mm 1 mps 577 mmHg 93%
    05:00 +14°C° 0.1 mm 1 mps 578 mmHg 92%
    06:00 +14°C° 0.1 mm 1 mps 578 mmHg 91%
    07:00 +15°C° 0.1 mm 1 mps 579 mmHg 90%
    08:00 +16°C° 0.2 mm 1 mps 579 mmHg 86%
    09:00 +18°C° 0.2 mm 1 mps 580 mmHg 83%
    10:00 +19°C° 0.2 mm 1 mps 581 mmHg 79%
    11:00 +20°C° 0.6 mm 1 mps 580 mmHg 78%
    12:00 +21°C° 0.6 mm 1 mps 580 mmHg 76%
    13:00 +21°C° 0.6 mm 1 mps 580 mmHg 75%
    14:00 +21°C° 1.3 mm 1 mps 579 mmHg 78%
    15:00 +20°C° 1.3 mm 1 mps 579 mmHg 82%
    16:00 +19°C° 1.3 mm 1 mps 578 mmHg 85%
    17:00 +18°C° 1.2 mm 1 mps 578 mmHg 88%
    18:00 +16°C° 1.2 mm 1 mps 577 mmHg 90%
    19:00 +15°C° 1.2 mm 1 mps 577 mmHg 92%
    20:00 +15°C° 0.8 mm 1 mps 578 mmHg 92%
    21:00 +15°C° 0.8 mm 1 mps 578 mmHg 92%
    22:00 +15°C° 0.8 mm 1 mps 578 mmHg 92%
    23:00 +14°C° 0.1 mm 1 mps 578 mmHg 92%

    Day after tomorrow, 31 May, Sunday

    Time Temperature Precipitation Wind Pressure Humidity
    00:00 +14°C° 0.1 mm 1 mps 578 mmHg 92%
    01:00 +14°C° 0.1 mm 1 mps 578 mmHg 92%
    02:00 +14°C° 0 mm 1 mps 578 mmHg 92%
    03:00 +14°C° 0 mm 1 mps 577 mmHg 92%
    04:00 +14°C° 0 mm 1 mps 577 mmHg 92%
    05:00 +14°C° 0 mm 1 mps 578 mmHg 91%
    06:00 +15°C° 0 mm 1 mps 578 mmHg 90%
    07:00 +15°C° 0 mm 1 mps 579 mmHg 88%
    08:00 +16°C° 0.3 mm 1 mps 580 mmHg 86%
    09:00 +19°C° 0.3 mm 1 mps 580 mmHg 83%
    10:00 +20°C° 0.3 mm 1 mps 581 mmHg 81%
    11:00 +20°C° 1.1 mm 1 mps 581 mmHg 82%
    12:00 +20°C° 1.1 mm 1 mps 580 mmHg 83%
    13:00 +20°C° 1.1 mm 1 mps 579 mmHg 85%
    14:00 +19°C° 1.1 mm 1 mps 579 mmHg 86%
    15:00 +19°C° 1.1 mm 1 mps 578 mmHg 88%
    16:00 +19°C° 1.1 mm 1 mps 578 mmHg 90%
    17:00 +18°C° 1.1 mm 1 mps 578 mmHg 92%
    18:00 +16°C° 1.1 mm 1 mps 578 mmHg 93%
    19:00 +14°C° 1.1 mm 0 mps 578 mmHg 95%
    20:00 +14°C° 0.5 mm 0 mps 578 mmHg 95%
    21:00 +14°C° 0.5 mm 0 mps 578 mmHg 94%
    22:00 +13°C° 0.5 mm 0 mps 579 mmHg 93%
    23:00 +13°C° 0.3 mm 0 mps 578 mmHg 94%

    1 June, Monday

    Time Temperature Precipitation Wind Pressure Humidity
    00:00 +13°C° 0.3 mm 0 mps 578 mmHg 94%
    01:00 +13°C° 0.3 mm 0 mps 578 mmHg 94%
    02:00 +13°C° 0.3 mm 0 mps 578 mmHg 95%
    03:00 +13°C° 0.3 mm 0 mps 578 mmHg 95%
    04:00 +13°C° 0.3 mm 0 mps 578 mmHg 95%
    05:00 +13°C° 0.2 mm 0 mps 578 mmHg 94%
    06:00 +14°C° 0.2 mm 0 mps 579 mmHg 94%
    07:00 +14°C° 0.2 mm 0 mps 579 mmHg 93%
    08:00 +15°C° 0.3 mm 0 mps 580 mmHg 91%
    09:00 +18°C° 0.3 mm 1 mps 580 mmHg 89%
    10:00 +19°C° 0.3 mm 1 mps 581 mmHg 86%
    11:00 +19°C° 1 mm 1 mps 580 mmHg 87%
    12:00 +19°C° 1 mm 1 mps 580 mmHg 87%
    13:00 +19°C° 1 mm 1 mps 580 mmHg 87%
    14:00 +19°C° 1.4 mm 1 mps 579 mmHg 89%
    15:00 +18°C° 1.4 mm 1 mps 578 mmHg 90%
    16:00 +18°C° 1.4 mm 1 mps 578 mmHg 91%
    17:00 +16°C° 1.4 mm 1 mps 578 mmHg 92%
    18:00 +16°C° 1.4 mm 1 mps 578 mmHg 93%
    19:00 +15°C° 1.4 mm 1 mps 578 mmHg 95%
    20:00 +15°C° 1 mm 1 mps 578 mmHg 94%
    21:00 +15°C° 1 mm 1 mps 579 mmHg 93%
    22:00 +14°C° 1 mm 0 mps 579 mmHg 93%
    23:00 +14°C° 0.3 mm 0 mps 579 mmHg 93%

    2 June, Tuesday

    Time Temperature Precipitation Wind Pressure Humidity
    00:00 +13°C° 0.3 mm 0 mps 578 mmHg 93%
    01:00 +13°C° 0.3 mm 0 mps 578 mmHg 93%
    02:00 +13°C° 0.1 mm 0 mps 578 mmHg 92%
    03:00 +14°C° 0.1 mm 1 mps 577 mmHg 92%
    04:00 +14°C° 0.1 mm 1 mps 577 mmHg 91%
    05:00 +14°C° 0 mm 1 mps 578 mmHg 90%
    06:00 +15°C° 0 mm 1 mps 578 mmHg 89%
    07:00 +15°C° 0 mm 1 mps 579 mmHg 88%
    08:00 +18°C° 0.1 mm 1 mps 579 mmHg 84%
    09:00 +19°C° 0.1 mm 1 mps 580 mmHg 80%
    10:00 +20°C° 0.1 mm 1 mps 581 mmHg 76%
    11:00 +20°C° 0.9 mm 1 mps 580 mmHg 77%
    12:00 +21°C° 0.9 mm 1 mps 580 mmHg 79%
    13:00 +21°C° 0.9 mm 1 mps 579 mmHg 80%
    14:00 +20°C° 1.2 mm 1 mps 579 mmHg 83%
    15:00 +20°C° 1.2 mm 1 mps 578 mmHg 86%
    16:00 +19°C° 1.2 mm 1 mps 577 mmHg 89%
    17:00 +18°C° 1.1 mm 1 mps 577 mmHg 91%
    18:00 +16°C° 1.1 mm 1 mps 577 mmHg 92%
    19:00 +16°C° 1.1 mm 1 mps 577 mmHg 94%
    20:00 +15°C° 1.7 mm 1 mps 578 mmHg 95%
    21:00 +15°C° 1.7 mm 1 mps 578 mmHg 95%
    22:00 +14°C° 1.7 mm 0 mps 578 mmHg 95%
    23:00 +14°C° 1.1 mm 0 mps 578 mmHg 95%

    3 June, Wednesday

    Time Temperature Precipitation Wind Pressure Humidity
    00:00 +13°C° 1.1 mm 0 mps 578 mmHg 95%
    01:00 +13°C° 1.1 mm 0 mps 577 mmHg 95%
    02:00 +13°C° 0.1 mm 0 mps 577 mmHg 95%
    03:00 +13°C° 0.1 mm 0 mps 577 mmHg 94%
    04:00 +12°C° 0.1 mm 0 mps 576 mmHg 94%
    05:00 +13°C° 0 mm 0 mps 577 mmHg 92%
    06:00 +13°C° 0 mm 0 mps 578 mmHg 90%
    07:00 +14°C° 0 mm 0 mps 578 mmHg 89%
    08:00 +16°C° 0.3 mm 1 mps 579 mmHg 87%
    09:00 +18°C° 0.3 mm 1 mps 579 mmHg 85%
    10:00 +19°C° 0.3 mm 1 mps 580 mmHg 83%
    11:00 +19°C° 0.8 mm 1 mps 579 mmHg 83%
    12:00 +19°C° 0.8 mm 1 mps 579 mmHg 83%
    13:00 +20°C° 0.8 mm 1 mps 578 mmHg 83%
    14:00 +19°C° 1 mm 1 mps 578 mmHg 84%
    15:00 +19°C° 1 mm 1 mps 577 mmHg 86%
    16:00 +19°C° 1 mm 1 mps 576 mmHg 87%
    17:00 +18°C° 0.9 mm 1 mps 577 mmHg 89%
    18:00 +16°C° 0.9 mm 1 mps 577 mmHg 90%
    19:00 +16°C° 0.9 mm 1 mps 577 mmHg 92%
    20:00 +15°C° 0.7 mm 1 mps 577 mmHg 92%
    21:00 +15°C° 0.7 mm 1 mps 577 mmHg 92%
    22:00 +15°C° 0.7 mm 1 mps 577 mmHg 92%
    23:00 +13°C° 0.2 mm 0 mps 577 mmHg 92%
    Show more